EHI
0 0 0 0 0 0 0 0 0 0 0 0 0 0 0 0 0 0 0 0 1 2 2 1 0 0 0 0 0 1 4 6 6 5 4 3 2 2 1 1 0 0 1 1
0 0 0 0 0 0 0 0 0 0 0 0 0 0 0 0 0 0 0 0 1 1 1 0 0 0 0 0 0 1 2 4 5 4 4 3 2 1 1 1 0 0 0 1
0 0 0 0 0 0 0 0 0 0 0 0 0 0 0 0 0 0 0 0 0 0 0 0 0 0 0 0 0 0 1 1 2 3 4 4 2 0 1 1 1 0 0 0
0 0 0 0 0 0 0 0 0 0 0 0 0 0 0 0 0 0 0 0 0 0 0 0 0 0 0 0 0 0 0 0 1 1 3 3 2 1 0 1 1 1 0 0
0 0 0 0 0 0 0 0 0 0 0 0 0 0 0 0 0 0 0 0 0 0 0 0 0 0 0 0 0 0 0 0 0 0 1 1 1 1 0 1 2 1 1 1
0 0 0 0 0 0 0 0 0 0 0 0 0 0 0 0 0 0 0 0 0 0 0 0 0 0 0 0 0 0 0 0 0 0 0 0 0 0 0 1 2 3 2 2
0 0 0 0 0 0 0 0 0 0 0 0 0 0 0 0 0 0 0 0 0 0 0 0 0 0 0 0 0 0 0 0 0 0 0 0 0 0 0 1 2 3 3 3
0 0 0 0 0 0 0 0 0 0 0 0 0 0 0 0 0 0 0 0 0 0 0 0 0 0 0 0 0 0 0 0 0 0 0 0 0 0 0 1 1 1 2 3
0 0 0 0 0 0 0 0 0 0 0 0 0 0 0 0 0 0 0 0 0 0 0 0 0 0 0 0 0 0 0 0 0 0 0 0 0 0 0 0 0 0 1 2
0 0 0 0 0 0 0 0 0 0 0 0 0 0 0 0 0 0 0 0 0 0 0 0 0 0 0 0 0 0 0 0 0 0 0 0 0 0 0 0 0 0 1 2
0 0 0 0 0 0 0 0 0 0 0 0 0 0 0 0 0 0 0 0 0 0 0 0 0 0 0 0 0 0 0 0 0 0 0 0 0 0 0 0 0 0 0 1
0 0 0 0 0 0 0 0 0 0 0 0 0 0 0 0 0 0 0 0 0 0 0 0 0 0 0 0 0 0 0 0 0 0 0 0 0 0 0 0 0 0 0 0
0 0 0 0 0 0 0 0 0 0 0 0 0 0 0 0 0 0 0 0 0 0 0 0 0 0 0 0 0 0 0 0 0 0 0 0 0 0 0 0 0 0 0 0
0 0 0 0 0 0 0 0 0 0 0 0 0 0 0 0 0 0 0 0 0 0 0 0 0 0 0 0 0 0 0 0 0 0 0 0 0 0 0 0 0 0 0 0
0 0 0 0 0 0 0 0 0 0 0 0 0 0 0 0 0 0 0 0 0 0 0 0 0 0 0 0 0 0 0 0 0 0 0 0 0 0 0 0 0 0 0 0
0 0 0 0 0 0 0 0 0 0 0 0 0 0 0 0 0 0 0 0 0 0 0 0 0 0 0 0 0 0 0 0 0 0 0 0 0 0 0 0 0 0 0 0
0 0 0 0 0 0 0 0 0 0 0 0 0 0 0 0 0 0 0 0 0 0 0 0 0 0 0 0 0 0 0 0 0 0 0 0 0 0 0 0 0 0 0 0
0 0 0 0 0 0 0 0 0 0 0 0 0 0 0 0 0 0 0 0 0 0 0 0 0 0 0 0 0 0 0 0 0 0 0 0 0 0 0 0 0 0 0 0
0 0 0 0 0 0 0 0 0 0 0 0 0 0 0 0 0 0 0 0 0 0 0 0 0 0 0 0 0 0 0 0 0 0 0 0 0 0 0 0 0 0 0 0
0 0 0 0 0 0 0 0 0 0 0 0 0 0 0 0 0 0 0 0 0 0 0 0 0 0 0 0 0 0 0 0 0 0 0 0 0 0 0 0 0 0 0 0
0 0 0 0 0 0 0 0 0 0 0 0 0 0 0 0 0 0 0 0 0 0 0 0 0 0 0 0 0 0 0 0 0 0 0 0 0 0 0 0 0 0 0 0
0 0 0 0 0 0 0 0 0 0 0 0 0 0 0 0 0 0 0 0 0 0 0 0 0 0 0 0 0 0 0 0 0 0 0 0 0 0 0 0 0 0 0 0
0 0 0 0 0 0 0 0 0 0 0 0 0 0 0 0 0 0 0 0 0 0 0 0 0 0 0 0 0 0 0 0 0 0 0 0 0 0 0 0 0 0 0 0
0 0 0 0 0 0 0 0 0 0 0 0 0 0 0 0 0 0 0 0 0 0 0 0 0 0 0 0 0 0 0 0 0 0 0 0 0 0 0 0 0 0 0 0
0 0 0 0 0 0 0 0 0 0 0 0 0 0 0 0 0 0 0 0 0 0 0 0 0 0 0 0 0 0 0 0 0 0 0 0 0 0 0 0 0 0 0 0
0 0 0 0 0 0 0 0 0 0 0 0 0 0 0 0 0 0 0 0 0 0 0 0 0 0 0 0 0 0 0 0 0 0 0 0 0 0 0 0 0 0 0 0
Wind_Speed
4 6 2 1 1 1 2 2 3 4 2 2 6 9 8 5 3 4 4 3 3 3 3 3 2 2 3 2 2 1 1 1 0 0 0 1 1 2 2 2 2 2 2 2
5 3 2 1 0 1 0 1 2 3 2 2 5 9 7 4 4 4 4 3 3 3 3 3 3 3 3 3 3 2 1 1 1 1 1 2 2 2 3 2 2 3 3 3
3 2 1 1 2 1 1 2 2 3 4 2 4 7 4 2 2 1 2 2 1 1 2 3 3 3 3 4 4 3 3 2 1 1 1 1 1 1 2 2 2 2 3 3
1 2 2 1 1 1 2 1 2 2 2 4 1 6 6 3 3 3 3 2 2 2 2 2 3 4 4 4 4 4 3 3 2 1 1 2 2 2 3 2 2 3 3 3
1 1 1 1 2 0 2 2 2 2 0 3 2 2 8 3 4 5 4 3 3 2 2 2 3 3 4 4 4 4 4 3 2 2 2 3 3 3 3 2 3 3 3 3
1 1 0 1 2 0 1 2 3 3 3 3 3 3 8 3 4 5 4 3 3 2 2 3 3 4 4 5 5 4 4 3 3 2 2 3 3 4 4 3 3 3 3 3
4 2 2 1 2 4 5 4 4 6 3 6 2 3 9 4 3 3 3 4 3 2 2 3 4 5 5 6 6 5 4 4 3 3 3 3 4 4 5 5 4 4 3 3
1 5 2 1 1 0 1 4 4 3 5 6 3 6 7 3 3 3 2 3 4 3 3 4 4 4 4 5 5 5 5 5 4 3 4 4 4 3 4 4 4 4 4 4
2 5 2 1 1 3 2 1 3 3 1 4 6 7 7 2 3 4 4 4 4 5 5 5 4 4 5 5 5 5 4 4 4 4 5 4 3 3 4 4 3 3 4 4
4 4 3 2 2 2 2 4 3 3 2 5 7 6 5 5 5 4 4 4 5 5 6 6 5 5 5 5 5 5 4 4 5 4 4 4 4 4 3 3 4 4 4 4
2 2 4 2 2 3 2 1 2 2 3 3 5 8 5 5 5 5 5 5 5 6 6 6 5 5 5 5 5 5 5 5 5 5 4 5 4 3 3 3 4 4 4 4
2 3 3 5 2 2 3 4 5 3 4 4 4 10 4 3 4 4 5 5 5 6 6 5 5 6 6 6 5 5 5 5 5 5 4 4 5 4 3 4 4 4 4 4
3 3 2 5 2 1 1 2 3 3 2 4 5 10 2 2 4 4 5 6 6 6 6 5 5 5 6 6 6 5 5 6 5 5 4 5 5 4 4 5 4 4 4 4
4 3 6 8 6 3 4 4 4 4 4 6 10 12 9 7 7 7 6 6 6 6 5 5 5 6 6 6 6 6 6 6 5 5 5 5 5 5 5 5 4 4 4 4
3 3 5 7 6 5 7 9 8 9 9 9 10 10 14 8 7 7 6 6 6 6 6 6 6 6 7 7 6 6 6 6 5 5 5 5 5 5 5 5 4 4 4 4
2 2 2 5 5 5 9 10 9 10 9 11 11 15 10 7 5 5 6 6 7 7 7 7 7 7 7 7 6 6 7 6 5 5 5 6 5 5 5 5 5 4 4 4
3 3 1 5 3 4 9 8 8 6 7 8 11 12 5 5 6 7 7 6 7 8 7 7 7 7 7 7 7 7 7 6 5 5 6 5 5 5 5 6 5 5 4 3
5 4 2 3 3 6 7 2 5 7 7 8 8 7 6 7 6 6 5 5 7 7 7 7 7 8 7 7 6 6 6 5 5 5 5 5 5 5 5 5 4 5 4 3
4 5 3 1 3 9 8 3 3 5 7 7 9 9 7 5 5 5 4 4 5 6 6 6 7 7 7 6 6 6 5 4 5 5 5 5 5 5 5 5 5 4 4 4
3 3 3 3 3 8 7 2 0 2 6 4 4 6 5 2 3 6 4 5 5 6 5 6 6 6 6 6 5 5 5 5 5 6 6 6 5 4 5 5 4 4 4 3
2 2 4 5 6 11 6 1 2 2 7 3 3 4 3 4 6 6 5 5 5 5 6 6 6 6 6 6 5 5 5 6 6 6 6 5 5 5 5 4 3 3 3 3
8 6 6 5 6 11 3 4 6 7 2 2 3 3 4 5 5 5 5 5 6 6 6 6 6 6 6 6 5 5 6 6 6 5 5 5 5 4 4 3 3 3 3 3
7 8 7 10 10 4 4 6 4 1 2 3 3 4 4 4 5 5 5 5 5 6 6 6 6 7 7 5 4 5 6 6 5 5 5 5 5 4 4 3 3 3 2 2
4 3 3 6 8 5 5 4 3 3 4 4 3 4 3 4 5 5 5 5 5 6 6 6 6 6 7 6 6 5 6 5 5 5 5 5 4 4 4 3 3 2 2 2
6 5 4 6 7 5 5 5 5 3 3 3 3 3 3 3 5 5 5 5 5 6 6 5 5 6 7 7 6 6 6 4 4 5 5 5 4 4 3 3 3 3 2 2
5 7 7 8 6 5 5 3 2 3 4 4 3 4 4 3 5 5 5 5 5 5 5 5 6 6 7 6 6 6 5 4 4 4 4 3 3 3 3 3 4 5 5 6
Wind_Direction
34 60 55 247 203 180 170 185 253 265 279 271 251 266 275 262 252 265 268 260 272 275 292 308 320 334 349 351 353 337 349 320 3 36 324 268 263 283 285 255 236 226 215 194
46 31 261 277 332 22 115 227 276 296 322 288 283 280 272 248 227 229 237 243 254 308 334 335 342 354 352 346 345 334 309 287 296 224 216 229 246 251 255 250 249 227 216 203
124 248 291 47 32 19 309 208 243 278 321 324 317 297 277 288 241 266 236 226 244 269 289 312 337 344 351 345 334 328 320 302 300 278 245 271 300 308 290 274 269 258 228 208
57 307 14 38 7 59 277 251 260 294 346 306 8 297 292 299 308 299 284 291 295 316 322 334 341 342 336 320 316 314 312 310 294 273 221 213 232 251 267 251 249 262 245 221
305 319 9 332 298 212 251 299 291 292 187 316 314 243 287 324 299 296 293 297 309 319 331 334 332 330 331 325 318 313 321 323 318 302 241 222 245 251 269 257 252 254 251 234
273 307 277 260 315 317 335 19 21 38 66 298 245 196 281 259 260 300 313 308 306 317 330 330 329 343 344 338 332 325 331 325 322 304 269 238 244 257 267 264 251 248 248 243
333 324 349 19 14 13 44 64 19 355 355 259 262 223 253 258 271 272 285 296 306 315 333 332 332 338 338 334 331 332 328 319 314 296 279 268 254 244 244 245 242 248 247 251
344 298 285 354 125 196 33 121 147 223 254 285 302 244 256 275 302 301 305 311 322 327 328 321 318 322 319 317 319 321 319 314 315 305 285 270 259 255 256 242 242 240 238 243
187 268 337 16 47 126 118 159 161 145 293 287 274 282 298 300 331 340 342 339 324 324 321 314 316 315 311 309 310 307 306 307 308 300 292 280 272 267 271 264 253 247 249 253
158 264 292 321 47 37 119 142 103 133 214 274 288 274 263 281 287 304 311 309 306 312 314 311 313 313 309 304 306 310 309 301 298 296 295 296 285 272 268 272 271 262 259 257
127 185 302 342 198 205 125 125 137 150 181 201 278 273 233 231 244 257 270 280 287 296 301 302 307 310 309 310 310 312 319 316 307 302 302 302 290 282 281 275 269 267 263 258
145 136 264 259 258 213 179 180 157 174 233 208 235 271 263 237 264 262 274 286 293 295 297 298 305 312 315 313 311 314 318 310 302 300 305 304 307 297 284 281 275 272 270 264
142 130 328 329 320 337 256 213 183 158 156 196 219 265 297 319 311 299 289 295 300 302 301 307 311 309 309 307 307 310 312 305 304 307 308 308 307 304 294 282 275 272 268 270
128 167 197 227 243 203 240 234 194 169 204 229 233 260 286 297 301 305 301 296 299 301 302 307 307 306 307 305 306 310 308 306 305 305 305 305 305 301 297 293 277 269 268 266
127 216 239 257 260 239 243 243 214 211 214 224 249 256 269 280 281 285 288 294 302 305 308 307 307 307 308 308 309 309 308 309 303 302 304 302 304 303 302 300 289 275 269 271
149 219 267 278 261 253 265 255 229 228 233 243 263 271 266 277 286 286 287 292 297 300 304 306 307 307 306 304 304 307 308 305 301 300 296 300 307 309 305 301 298 288 279 275
178 170 212 269 305 324 272 242 204 207 215 208 234 254 284 292 286 283 284 284 287 294 302 306 305 303 301 298 298 300 302 303 304 306 306 308 309 306 305 303 303 297 288 286
162 159 191 279 360 250 245 204 191 209 237 223 244 267 274 268 278 280 271 270 284 299 303 304 303 303 301 299 299 299 300 302 304 305 306 306 307 304 306 301 296 293 288 280
158 160 176 204 264 277 288 254 182 201 265 232 238 264 282 297 311 294 275 274 278 290 293 294 295 297 302 303 303 307 307 305 307 303 302 303 301 299 301 299 294 288 286 286
81 124 161 180 224 252 261 277 213 112 280 259 225 258 279 335 304 288 304 312 308 308 306 306 310 313 313 309 307 307 307 308 303 301 299 298 298 298 297 295 295 288 288 288
144 163 193 205 233 263 264 243 113 177 260 276 229 248 236 224 242 278 305 310 310 311 312 316 317 315 310 312 312 309 308 302 298 299 300 300 299 296 290 293 294 293 295 299
180 179 198 181 212 255 219 142 188 229 266 254 254 249 245 258 276 291 301 307 313 317 318 320 318 313 313 316 314 307 302 299 301 303 304 302 300 297 301 303 303 302 299 303
200 195 192 196 217 242 177 200 227 228 254 265 267 273 263 274 282 294 300 302 307 308 312 314 312 312 315 316 312 302 301 307 308 310 310 309 302 300 303 301 301 302 300 297
242 199 199 244 261 261 247 252 268 256 253 270 276 282 275 273 283 293 299 306 308 309 310 314 316 316 317 318 314 304 306 312 313 312 311 311 308 304 302 302 295 288 283 281
223 181 212 252 274 297 269 244 251 266 277 285 291 276 270 275 284 286 291 296 300 306 309 311 310 309 310 316 315 312 313 317 317 313 309 310 310 308 312 314 312 304 283 276
194 186 198 236 233 223 255 256 231 247 264 268 281 290 289 272 276 286 288 290 296 301 306 310 310 310 311 314 315 316 313 313 313 315 316 312 311 310 312 316 321 327 319 321